MDT,Max TemperatureF,Mean TemperatureF,Min TemperatureF,Max Dew PointF,MeanDew PointF,Min DewpointF,Max Humidity, Mean Humidity, Min Humidity, Max Sea Level PressureIn, Mean Sea Level PressureIn, Min Sea Level PressureIn, Max VisibilityMiles, Mean VisibilityMiles, Min VisibilityMiles, Max Wind SpeedMPH, Mean Wind SpeedMPH, Max Gust SpeedMPH,PrecipitationIn, CloudCover, Events, WindDirDegrees
2012-8-1,89,70,50,54,43,39,71,41,18,30.41,30.34,30.23,10,10,10,18,7,25,0.01,1,Thunderstorm,304
2012-8-2,89,71,53,52,46,39,77,47,18,30.34,30.27,30.17,10,10,10,26,6,33,0.01,1,Thunderstorm,5
2012-8-3,82,70,57,52,45,37,72,46,20,30.34,30.25,30.18,10,10,10,26,11,33,0.00,3,,323
2012-8-4,84,66,48,54,46,37,88,54,20,30.45,30.30,30.22,10,10,9,24,9,31,0.10,2,Thunderstorm,78
2012-8-5,80,66,53,55,51,48,94,63,32,30.59,30.48,30.42,10,10,5,16,6,24,0.56,3,Thunderstorm,206
2012-8-6,80,68,55,57,54,52,100,68,39,30.59,30.47,30.36,10,10,5,12,4,,0.44,2,,354
2012-8-7,87,71,55,55,49,41,82,52,19,30.42,30.38,30.30,10,10,10,17,5,24,0.00,1,Thunderstorm,7
2012-8-8,86,70,55,50,44,32,77,41,18,30.47,30.41,30.35,10,10,10,14,7,16,0.00,2,,18
2012-8-9,89,70,50,43,38,32,58,31,16,30.49,30.42,30.32,10,10,10,23,7,31,0.00,1,,29
2012-8-10,89,72,55,50,42,37,63,39,17,30.42,30.36,30.26,10,10,9,20,6,32,0.01,2,Thunderstorm,346
2012-8-11,89,71,53,48,43,36,72,41,18,30.35,30.30,30.22,10,10,10,20,6,29,0.00,2,,232
2012-8-12,86,68,51,54,45,41,72,47,20,30.44,30.36,30.31,10,10,9,29,8,34,0.00,3,Thunderstorm,48
2012-8-13,84,67,50,55,48,39,87,56,25,30.44,30.36,30.22,10,10,9,20,6,28,0.04,1,Thunderstorm,261
2012-8-14,82,68,53,54,47,37,94,57,21,30.32,30.26,30.21,10,10,9,18,4,26,0.04,1,Thunderstorm,10
2012-8-15,86,67,48,45,40,34,71,39,19,30.26,30.20,30.13,10,10,10,16,5,28,0.00,1,Thunderstorm,360
2012-8-16,82,70,57,54,44,39,68,44,25,30.40,30.30,30.24,10,10,8,26,7,33,0.01,2,Thunderstorm,49
2012-8-17,80,66,53,52,47,39,77,55,27,30.40,30.32,30.23,10,10,10,15,5,24,0.00,1,Thunderstorm,89
2012-8-18,86,67,48,46,43,36,82,49,18,30.31,30.25,30.16,10,10,8,26,7,34,0.00,1,,81
2012-8-19,82,66,51,48,44,37,71,44,21,30.35,30.27,30.19,10,10,10,21,10,28,0.00,1,,110
2012-8-20,78,66,55,52,49,45,82,56,30,30.31,30.27,30.21,10,10,10,17,7,25,0.00,4,Thunderstorm,333
2012-8-21,84,65,46,50,44,30,93,53,14,30.34,30.28,30.22,10,10,10,20,6,25,0.00,0,,32
2012-8-22,80,68,55,55,50,45,77,59,34,30.31,30.27,30.21,10,10,10,18,5,25,0.01,4,Thunderstorm,131
2012-8-23,78,64,50,55,51,45,94,66,34,30.28,30.21,30.15,10,10,0,17,3,24,0.01,3,Thunderstorm,214
2012-8-24,80,66,51,52,47,43,82,61,29,30.19,30.14,30.06,10,10,9,20,3,24,0.00,5,,81
2012-8-25,84,65,46,48,42,36,93,49,18,30.27,30.18,30.14,10,10,10,21,5,29,0.00,1,,56
2012-8-26,84,68,53,46,44,39,63,42,21,30.40,30.33,30.27,10,10,2,25,10,39,0.00,1,,105
2012-8-27,87,68,48,48,43,37,66,42,22,30.48,30.42,30.36,10,10,10,22,6,30,0.00,1,,97
2012-8-28,87,66,46,43,36,28,71,36,14,30.51,30.42,30.30,10,10,10,13,5,18,0.00,0,,108
2012-8-29,87,66,46,39,33,28,54,30,15,30.39,30.31,30.18,10,10,10,15,5,17,0.00,1,,82
2012-8-30,87,68,48,36,31,25,46,27,15,30.31,30.25,30.15,10,10,10,14,6,21,0.00,0,,212
2012-8-31,86,67,48,34,29,23,43,24,14,30.35,30.29,30.22,10,10,10,13,6,18,0.00,1,,156